SDA_1675 (65985 NORAD) Tracking and Keplerian Element Data

This shows tracking and keplerian element data for the satellite.

Feedback or suggestion? Click here.




ElementValue
Catalog65985
NameSDA_1675
Epoch Orbit903
Epoch Day354.18071149
Epoch Year2025
RAAN17.7123
Inclination81.2985
Eccentricity0.0001746
Argument of Perigee294.1107
Mean Anonmoly65.9867
Mean Motion13.84733781
Decay Rate1.84E-06
L11 65985U 25230M 25354.18071149 .00000184 00000+0 15287-3 0 9993
L22 65985 81.2985 17.7123 0001746 294.1107 65.9867 13.84733781 9039



Live tracking and technical data element details for SDA_1675 (NORAD 65985). SDA_1675 can be tracked NOW for your location showing map with azimuth and elevation plus other details from your city location.







IsCatalogInMostPopularTable: catalog: 65985, numindb: 3
Update: records affected: 1



GetName: 65985 SDA_1675

Hit Count: updated at: Sat, 11 Apr 2026 21:52:13 GMT